DW8306 Weather Reports


time (UTC)temp
C
wind
direction
speed
KPH
gust
KPH
rain 1hr
cm
rain 24hr
cm
rain mn
cm
humidity
%
barometer
mb
20260507093107 12 13 0.0 9.7 0.00 0.00 0.00 83 1015.2
20260507091506 12 77 0.0 8.0 0.00 0.00 0.00 82 1015.1
20260507090007 12 62 1.6 9.7 0.00 0.00 0.00 83 1015.2
20260507084617 12 4 3.2 11.3 0.00 0.00 0.00 83 1014.9
20260507083021 12 335 4.8 14.5 0.00 0.00 0.00 83 1015.2
20260507081520 12 52 4.8 11.3 0.00 0.00 0.00 83 1015.1
20260507080012 12 11 0.0 9.7 0.00 0.00 0.00 84 1015.4
20260507074515 12 359 3.2 11.3 0.00 0.00 0.00 84 1015.6
20260507073013 12 334 3.2 12.9 0.00 0.00 0.00 84 1015.7
20260507071513 12 4 4.8 12.9 0.00 0.00 0.00 84 1015.8
20260507070113 12 83 3.2 14.5 0.00 0.00 0.00 84 1015.6
20260507064515 12 4 4.8 11.3 0.00 0.00 0.00 85 1016.0
20260507063009 12 11 4.8 12.9 0.00 0.00 0.00 84 1015.8
20260507061612 12 35 1.6 12.9 0.00 0.00 0.00 86 1015.5
20260507060003 12 4 3.2 8.0 0.00 0.00 0.00 87 1016.0
20260507054506 12 332 4.8 14.5 0.00 0.00 0.00 87 1016.0
20260507053018 12 354 6.4 14.5 0.00 0.00 0.00 88 1015.9
20260507051605 12 12 4.8 14.5 0.00 0.00 0.00 89 1015.5
20260507050014 12 330 8.0 16.1 0.00 0.00 0.00 89 1015.5
20260507044521 12 354 4.8 11.3 0.00 0.00 0.00 90 1015.4
20260507041518 12 41 0.0 11.3 0.00 0.00 0.00 90 1014.9
20260507040019 13 322 0.0 8.0 0.00 0.00 0.00 90 1015.0
20260507034607 13 326 4.8 14.5 0.00 0.00 0.00 89 1014.7
20260507033008 13 335 4.8 11.3 0.00 0.00 0.00 88 1014.8
20260507031506 13 27 1.6 11.3 0.00 0.00 0.00 88 1014.6
20260507030009 13 324 3.2 14.5 0.00 0.00 0.00 88 1014.3
20260507024510 13 347 3.2 11.3 0.00 0.00 0.00 89 1014.3
20260507023009 13 66 4.8 14.5 0.00 0.00 0.00 88 1014.0
20260507021506 13 13 4.8 14.5 0.00 0.00 0.00 87 1014.0
20260507020121 13 26 8.0 16.1 0.00 0.00 0.00 86 1013.6
20260507014512 14 8 6.4 19.3 0.00 0.00 0.00 86 1013.3
20260507013005 14 307 6.4 16.1 0.00 0.00 0.00 87 1012.8
20260507011607 14 4 3.2 12.9 0.00 0.00 0.00 87 1012.3
20260507010008 14 288 6.4 16.1 0.00 0.00 0.00 86 1012.2
20260507004505 15 312 4.8 16.1 0.00 0.00 0.00 86 1012.2
20260507003006 15 342 3.2 17.7 0.00 0.00 0.00 85 1012.2
20260507001529 15 95 6.4 14.5 0.00 0.00 0.00 86 1012.1
20260507000024 15 343 8.0 14.5 0.00 0.00 0.00 85 1011.8
20260506234515 15 42 4.8 17.7 0.00 0.00 0.00 84 1011.7
20260506233111 15 341 3.2 12.9 0.00 0.00 0.00 85 1011.8
20260506231517 16 289 6.4 16.1 0.00 0.00 0.00 83 1011.4
20260506230116 16 335 4.8 14.5 0.00 0.00 0.00 83 1011.1
20260506224609 17 324 4.8 12.9 0.00 0.00 0.00 82 1011.1
20260506223005 17 31 4.8 17.7 0.00 0.00 0.00 82 1011.2
20260506221512 17 4 3.2 11.3 0.00 0.00 0.00 82 1010.4
20260506220009 17 97 6.4 12.9 0.00 0.00 0.00 81 1010.4
20260506214513 18 45 1.6 16.1 0.00 0.00 0.00 80 1010.7
20260506213017 18 4 3.2 14.5 0.00 0.00 0.00 80 1010.5
20260506211619 18 354 4.8 14.5 0.00 0.00 0.00 80 1010.4
20260506210105 18 8 3.2 19.3 0.00 0.00 0.00 80 1010.7
20260506204512 19 293 6.4 16.1 0.00 0.00 0.00 78 1010.7
20260506203011 20 317 6.4 16.1 0.00 0.00 0.00 78 1010.1
20260506201618 20 252 6.4 22.5 0.00 0.00 0.00 77 1009.8
20260506200010 21 359 9.7 16.1 0.00 0.00 0.00 78 1009.7
20260506194506 21 354 6.4 17.7 0.00 0.00 0.00 79 1009.8
20260506193111 21 347 6.4 17.7 0.00 0.00 0.00 78 1010.2
20260506191510 22 344 6.4 14.5 0.00 0.00 0.00 80 1010.3
20260506190011 21 77 6.4 14.5 0.00 0.00 0.00 83 1010.3
20260506184507 21 16 4.8 9.7 0.00 0.00 0.00 83 1010.5
20260506183114 20 336 3.2 16.1 0.00 0.00 0.00 85 1011.2
20260506181536 20 81 4.8 16.1 0.00 0.00 0.00 86 1011.5
20260506180105 21 359 8.0 20.9 0.00 0.00 0.00 82 1011.9
20260506174516 22 13 4.8 12.9 0.00 0.00 0.00 82 1011.6
20260506173005 22 319 3.2 14.5 0.00 0.00 0.00 82 1012.1
20260506171505 22 333 4.8 12.9 0.00 0.00 0.00 84 1012.2
20260506164627 22 317 4.8 12.9 0.00 0.00 0.00 84 1011.7
20260506163014 23 316 3.2 14.5 0.00 0.00 0.00 83 1011.1
20260506161508 23 4 0.0 8.0 0.00 0.00 0.00 83 1011.1
20260506160134 23 66 0.0 8.0 0.00 0.00 0.00 83 1010.6
20260506154514 24 4 1.6 11.3 0.00 0.00 0.00 80 1010.8
20260506153012 26 264 0.0 1.6 0.00 0.00 0.00 81 1010.4
20260506151609 26 195 0.0 0.0 0.00 0.00 0.00 83 1010.3
20260506150004 26 127 0.0 1.6 0.00 0.00 0.00 84 1010.0
20260506144612 25 45 0.0 0.0 0.00 0.00 0.00 85 1010.0
20260506143105 25 18 0.0 0.0 0.00 0.00 0.00 86 1010.1
20260506141605 25 349 0.0 0.0 0.00 0.00 0.00 86 1010.0
20260506140013 24 323 0.0 0.0 0.00 0.00 0.00 87 1010.0
20260506134612 24 166 0.0 0.0 0.00 0.00 0.00 89 1009.8
20260506133116 23 176 0.0 0.0 0.00 0.00 0.00 90 1009.7
20260506131519 23 179 0.0 0.0 0.00 0.00 0.00 91 1009.6
20260506130014 23 179 0.0 0.0 0.00 0.00 0.00 91 1009.6
20260506124623 23 179 0.0 0.0 0.00 0.00 0.00 91 1009.5
20260506123012 23 179 0.0 0.0 0.00 0.00 0.00 91 1009.4
20260506121512 23 179 0.0 0.0 0.00 0.00 0.00 91 1009.1
20260506120116 22 179 0.0 0.0 0.00 0.00 0.00 91 1009.0
20260506114518 22 179 0.0 0.0 0.00 0.00 0.00 91 1009.0
20260506113011 22 179 0.0 0.0 0.00 0.00 0.00 91 1008.7
20260506111515 22 179 0.0 0.0 0.00 0.00 0.00 91 1008.4
20260506110020 22 179 0.0 0.0 0.00 0.00 0.00 91 1008.3
20260506104531 22 179 0.0 0.0 0.00 0.00 0.00 91 1008.2
20260506103035 22 179 0.0 0.0 0.00 0.00 0.00 91 1008.0
20260506101508 22 179 0.0 0.0 0.00 0.00 0.00 91 1007.8
20260506100018 22 179 0.0 0.0 0.00 0.00 0.00 90 1007.9
20260506094518 22 179 0.0 0.0 0.00 0.00 0.00 90 1007.4